User: anonymous   Login
Location: Fort Wayne
(41.1310°N, 85.1290°W)
Time: 01:24:25
(UTC-05:00)
Language:

OAO 2 Rocket - Orbit

View from above orbital plane
View from above orbital plane
View from above satellite
View from above satellite

Ground track
Ground track

The orbit data is extracted from the following two-line orbital elements,

1 03598U 68110B   15024.90689325  .00000232  00000-0  58410-4 0  8173
2 03598 034.9922 233.0469 0049579 336.6007 166.3538 14.53891674439143
Epoch (UTC): 24 January 2015 21:45:55
Eccentricity: 0.0049579
inclination: 34.9922°
perigee height: 678 km
apogee height: 748 km
right ascension of ascending node: 233.0469°
argument of perigee: 336.6007°
revolutions per day: 14.53891674
mean anomaly at epoch: 166.3538°
orbit number at epoch: 43914

The dashed part of the orbit path shows where the satellite is in the earth's shadow,  

DLR